Home > Weather > Chișinău > Past weeks

Flag for Moldova Past Weather in Chișinău, Moldova — Yesterday and Last 2 Weeks

Now
86 °F

Sunny.


Feels Like: 87 °F
Forecast: 69 / 89 °F
Wind: 3 mph from Southwest

Location: Chisinau International Airport

Current Time: Jul 29, 2016 at 11:03:32 AM

Latest Report: Jul 29, 2016 at 10:30 AM


Visibility: 10 mi

Pressure: 29.95 "Hg

Humidity: 46%

Dew Point: 63 °F

Location of ChișinăuLocation

Past Weather in Chișinău — Graph

°F

Chișinău Temperature Yesterday

Maximum temperature yesterday: 93 °F (at 2:30 PM)
Minimum temperature yesterday: 64 °F (at 4:00 AM)
Average temperature yesterday: 80 °F

High & Low Weather Summary for the Past Weeks

 TemperatureHumidityPressure
High95 °F (Jul 17, 3:30 PM)94% (Jul 17, 5:00 AM)30.04 "Hg (Jul 17, 5:00 AM)
Low54 °F (Jul 21, 5:30 AM)26% (Jul 22, 3:00 PM)29.71 "Hg (Jul 17, 4:30 PM)
Average75 °F57%29.91 "Hg
* Reported Jul 14 10:00 AM — Jul 29 10:00 AM, Chișinău, Weather by CustomWeather, © 2016

Note: Actual official high and low records may vary slightly from our data, if they occured in-between our weather recording intervals... More about our weather records

Advertising

Chișinău Weather History for the Previous 24 Hours

Scroll right to see more
 ConditionsComfort  
Time TempWeatherWind HumidityBarometerVisibility
10:00 AM
Fri, Jul 29
84 °FPassing clouds.3 mph48%29.95 "HgN/A
9:30 AM79 °FPassing clouds.3 mph58%29.95 "HgN/A
9:00 AM77 °FSunny.2 mph61%29.95 "Hg10 mi
8:30 AM75 °FSunny.2 mph65%29.95 "Hg10 mi
8:00 AM73 °FSunny.2 mph69%29.95 "Hg10 mi
7:30 AM73 °FSunny.1 mph69%29.95 "Hg10 mi
7:00 AM73 °FSunny.1 mph65%29.95 "Hg10 mi
6:30 AM72 °FClear.No wind69%29.95 "Hg10 mi
6:00 AM72 °FClear.3 mph65%29.95 "Hg10 mi
5:30 AM70 °FClear.5 mph73%29.95 "Hg10 mi
5:00 AM70 °FClear.5 mph69%29.95 "Hg10 mi
4:30 AM70 °FClear.6 mph69%29.95 "Hg10 mi
4:00 AM72 °FClear.5 mph65%29.95 "Hg10 mi
3:30 AM68 °FClear.5 mph73%29.95 "Hg10 mi
3:00 AM70 °FClear.2 mph69%29.95 "Hg10 mi
2:30 AM75 °FClear.5 mph57%29.95 "Hg10 mi
2:00 AM73 °FClear.6 mph61%29.95 "Hg10 mi
1:30 AM73 °FClear.5 mph61%29.95 "Hg10 mi
1:00 AM77 °FClear.5 mph54%29.95 "Hg10 mi
12:30 AM77 °FClear.5 mph54%29.95 "Hg10 mi
12:00 AM79 °FClear.7 mph51%29.95 "Hg10 mi
11:30 PM
Thu, Jul 28
79 °FClear.7 mph51%29.95 "Hg10 mi
11:00 PM81 °FPassing clouds.6 mph48%29.95 "HgN/A
10:30 PM81 °FClear.5 mph48%29.95 "Hg10 mi
10:00 PM79 °FPassing clouds.7 mph51%29.95 "HgN/A
9:30 PM82 °FPassing clouds.7 mph45%29.95 "HgN/A
9:00 PM82 °FPassing clouds.8 mph45%29.95 "HgN/A
8:30 PM84 °FPassing clouds.8 mph43%29.92 "HgN/A
8:00 PM88 °FPassing clouds.5 mph40%29.92 "HgN/A
7:30 PM91 °FScattered clouds.2 mph32%29.92 "HgN/A
7:00 PM91 °FScattered clouds.2 mph32%29.92 "HgN/A
6:30 PM93 °FScattered clouds.2 mph28%29.92 "HgN/A
6:00 PM93 °FPassing clouds.3 mph28%29.92 "HgN/A
5:30 PM93 °FPassing clouds.5 mph26%29.92 "HgN/A
5:00 PM93 °FPassing clouds.7 mph28%29.95 "HgN/A
4:30 PM93 °FPassing clouds.5 mph28%29.95 "HgN/A
4:00 PM93 °FPassing clouds.5 mph28%29.95 "HgN/A
3:30 PM91 °FPassing clouds.6 mph32%29.95 "HgN/A
3:00 PM91 °FPassing clouds.6 mph30%29.98 "HgN/A
2:30 PM93 °FPassing clouds.6 mph30%29.98 "HgN/A
2:00 PM91 °FPassing clouds.6 mph32%29.98 "HgN/A
1:30 PM91 °FPassing clouds.6 mph32%29.98 "HgN/A
1:00 PM90 °FPassing clouds.7 mph31%29.98 "HgN/A
12:30 PM90 °FPassing clouds.5 mph33%30.01 "HgN/A
12:00 PM90 °FPassing clouds.7 mph36%30.01 "HgN/A
11:30 AM88 °FSunny.6 mph38%30.01 "Hg10 mi
11:00 AM86 °FPassing clouds.5 mph43%30.01 "HgN/A
Weather by CustomWeather, © 2016

See weather overviewHow to use our weather pages